Indianapolis, IN

10:07 AM EDT on September 23, 2019 (GMT -0400)
Indianapolis International

Weather History for KIND - July, 2019

Change the Weather History Date:

Tuesday, July 30, 2019

  Actual Average Record
Temperature  
Mean Temperature 78 °F 75 °F  
Max Temperature 87 °F 84 °F 103 °F (1940)
Min Temperature 69 °F 66 °F 51 °F (1965)
Degree Days  
Heating Degree Days 0 0  
Month to date heating degree days 0 0  
Since 1 June heating degree days 9 16  
Since 1 July heating degree days 0 0  
Cooling Degree Days 13 10  
Month to date cooling degree days 406 315  
Year to date cooling degree days 720 625  
Since 1 June cooling degree days 609 541  
Growing Degree Days 28 (Base 50)    
Moisture  
Dew Point 68 °F    
Average Humidity 73    
Maximum Humidity 100    
Minimum Humidity 46    
Precipitation  
Precipitation 0.00 in 0.13 in 1.63 in (1911)
Month to date precipitation 3.86 4.43  
Year to date precipitation 33.01 26.08  
Snow  
Snow 0.00 in 0.00 in 0.00 in ()
Month to date snowfall 0.0 0.0  
Since 1 June snowfall 0.0 0.0  
Since 1 July snowfall 0.0 0.0  
Snow Depth 0.00 in    
Sea Level Pressure  
Sea Level Pressure 29.97 in    
Wind  
Wind Speed 7 mph (WSW)    
Max Wind Speed 15 mph    
Max Gust Speed 24 mph    
Visibility 8 miles    
Events      
T = Trace of Precipitation, MM = Missing Value Source: NWS Daily Summary

Daily Weather History Graph

Daily Weather History Graph

Search for Another Location

Airport or City:

Astronomy

Jul. 30, 2019 Rise Set
Actual Time 6:42 AM EDT 9:00 PM EDT
Civil Twilight 6:11 AM EDT 9:30 PM EDT
Nautical Twilight 5:34 AM EDT 10:07 PM EDT
Astronomical Twilight 4:53 AM EDT 10:48 PM EDT
Moon 4:50 AM EDT (7/30) 8:04 PM EDT (7/30)
Length of Visible Light 15h 18m
Length of Day
14h 18m
Waning Crescent, 3% of the Moon is Illuminated
Jul 30
Waning Crescent
Jul 31
New
Aug 7
First Quarter
Aug 15
Full
Aug 23
Last Quarter

Hourly Weather History & Observations

Time (EDT) Temp. Heat Index Dew Point Humidity Pressure Visibility Wind Dir Wind Speed Gust Speed Precip Events Conditions
12:54 AM 71.1 °F - 70.0 °F 96% 29.94 in 9.0 mi SSW 6.9 mph - N/A   Mostly Cloudy
1:15 AM 71.1 °F - 70.0 °F 96% 29.95 in 8.0 mi SSW 9.2 mph - N/A   Mostly Cloudy
1:54 AM 70.0 °F - 69.1 °F 97% 29.94 in 10.0 mi SSW 5.8 mph - N/A   Mostly Cloudy
2:54 AM 70.0 °F - 69.1 °F 97% 29.94 in 10.0 mi SW 6.9 mph - N/A   Mostly Cloudy
3:09 AM 70.0 °F - 69.1 °F 97% 29.95 in 10.0 mi WSW 8.1 mph - N/A   Mostly Cloudy
3:31 AM 71.1 °F - 69.1 °F 93% 29.95 in 9.0 mi WSW 8.1 mph - N/A   Mostly Cloudy
3:54 AM 70.0 °F - 69.1 °F 97% 29.94 in 7.0 mi WSW 5.8 mph - N/A   Mostly Cloudy
4:23 AM 70.0 °F - 69.1 °F 97% 29.94 in 7.0 mi SW 5.8 mph - N/A   Mostly Cloudy
4:54 AM 69.1 °F - 69.1 °F 100% 29.94 in 7.0 mi SW 4.6 mph - N/A   Scattered Clouds
5:11 AM 70.0 °F - 69.1 °F 97% 29.95 in 6.0 mi SSW 5.8 mph - N/A   Mostly Cloudy
5:50 AM 71.6 °F - 69.8 °F 94% 29.96 in 5.0 mi WSW 5.8 mph - N/A   Overcast
5:54 AM 71.1 °F - 70.0 °F 96% 29.95 in 5.0 mi WSW 5.8 mph - N/A   Overcast
6:36 AM 71.1 °F - 70.0 °F 96% 29.97 in 6.0 mi SW 4.6 mph - N/A   Overcast
6:45 AM 70.0 °F - 70.0 °F 100% 29.98 in 2.0 mi SSW 4.6 mph - N/A   Overcast
6:54 AM 71.1 °F - 70.0 °F 96% 29.97 in 2.0 mi SSW 5.8 mph - N/A   Overcast
7:54 AM 72.0 °F - 71.1 °F 97% 29.98 in 2.0 mi SSW 5.8 mph - N/A   Overcast
8:54 AM 73.0 °F - 71.1 °F 93% 29.99 in 2.0 mi WSW 6.9 mph - N/A   Mostly Cloudy
9:50 AM 75.2 °F - 69.8 °F 83% 30.02 in 2.0 mi WSW 3.5 mph - N/A   Mostly Cloudy
9:54 AM 73.9 °F - 70.0 °F 87% 30.00 in 9.0 mi SW 4.6 mph - N/A   Mostly Cloudy
10:49 AM 78.8 °F - 69.8 °F 74% 30.02 in 10.0 mi West 3.5 mph - N/A   Scattered Clouds
10:54 AM 79.0 °F - 70.0 °F 74% 30.00 in 10.0 mi WSW 4.6 mph - N/A   Scattered Clouds
11:54 AM 80.1 °F 82.7 °F 68.0 °F 67% 30.00 in 10.0 mi Calm Calm - N/A   Scattered Clouds
12:54 PM 84.0 °F 86.3 °F 66.0 °F 55% 29.99 in 10.0 mi Calm Calm - N/A   Mostly Cloudy
1:54 PM 84.0 °F 85.4 °F 64.0 °F 51% 29.99 in 10.0 mi Variable 3.5 mph - N/A   Mostly Cloudy
2:54 PM 84.0 °F 85.4 °F 64.0 °F 51% 29.97 in 10.0 mi SW 5.8 mph - N/A   Scattered Clouds
3:54 PM 86.0 °F 87.3 °F 64.0 °F 48% 29.96 in 10.0 mi West 9.2 mph - N/A   Scattered Clouds
4:54 PM 87.1 °F 88.3 °F 64.0 °F 46% 29.95 in 10.0 mi NW 11.5 mph 19.6 mph N/A   Scattered Clouds
5:54 PM 84.9 °F 86.1 °F 64.0 °F 49% 29.96 in 10.0 mi NW 13.8 mph - N/A   Scattered Clouds
6:54 PM 82.0 °F 83.1 °F 63.0 °F 52% 29.96 in 10.0 mi NW 11.5 mph - N/A   Scattered Clouds
7:54 PM 82.0 °F 83.4 °F 64.0 °F 54% 29.97 in 10.0 mi NW 8.1 mph - N/A   Scattered Clouds
8:54 PM 78.1 °F - 63.0 °F 60% 29.99 in 10.0 mi NW 6.9 mph - N/A   Scattered Clouds
9:54 PM 75.9 °F - 63.0 °F 64% 30.01 in 10.0 mi WNW 5.8 mph - N/A   Partly Cloudy
10:54 PM 75.9 °F - 64.9 °F 69% 30.02 in 10.0 mi North 10.4 mph - N/A   Partly Cloudy
11:54 PM 75.0 °F - 64.9 °F 71% 30.03 in 10.0 mi NNE 12.7 mph - N/A   Partly Cloudy